Location: Avon Lake
(41.5219°N, 93.5010°W)
Time: 07:28:13
(UTC+00:00)

Tiangong - Visible Passes

Search period start: 28 November 2022 00:00
Search period end: 08 December 2022 00:00
Orbit: 385 x 394 km, 41.5° (Epoch: 28 November)

Date Brightness Start Highest point End Pass type
(mag) Time Alt. Az. Time Alt. Az. Time Alt. Az.
28 Nov 0.4 00:29:15 10° S 00:30:06 13° SSE 00:30:06 13° SSE visible
29 Nov 0.7 01:06:32 10° SW 01:07:21 16° SW 01:07:21 16° SW visible
30 Nov -0.5 00:09:00 10° SSW 00:11:36 23° SSE 00:12:12 22° SE visible
01 Dec -0.7 00:47:10 10° WSW 00:49:21 37° SW 00:49:21 37° SW visible
01 Dec -1.2 23:49:23 10° SW 23:52:22 37° SSE 23:54:07 20° E visible
02 Dec 1.3 01:25:59 10° W 01:26:26 13° W 01:26:26 13° W visible
03 Dec -2.2 00:28:00 10° WSW 00:31:11 76° S 00:31:11 76° S visible
03 Dec -1.8 23:30:04 10° WSW 23:33:12 58° SSE 23:35:56 13° E visible
04 Dec 0.4 01:06:55 10° W 01:08:15 23° W 01:08:15 23° W visible
05 Dec -2.2 00:08:55 10° W 00:12:06 90° S 00:13:00 44° E visible
06 Dec -0.9 00:47:51 10° W 00:50:06 42° W 00:50:06 42° W visible
06 Dec -2.2 23:49:50 10° W 23:53:02 89° N 23:54:55 22° E visible
07 Dec 1.3 01:26:50 10° W 01:27:15 13° W 01:27:15 13° W visible
